KINEIS-2C

Last updated on Wed Mar 11 2026 00:02:47 GMT+0000 (Coordinated Universal Time)

1 62929U 25028B 26069.40679252 .00001620 00000+0 26409-3 0 9995 2 62929 98.0273 124.5646 0000915 34.6383 325.4884 14.72319012 58073
UTC large
Height (km)
Speed (km/s)
/
Latitude / Longitude
Inclination (degrees)
Orbital Period (minutes)
Azimuth
Elevation
Range (km)
Doppler Factor

Next 0 passes for location: London (51.5072 / 0.1276)

Sorry there are no passes over London.